Simultaneous Nadir Overpasses (SNOs) Predictions

Prediction of SNOs between AQUA and METOP-A Satellite Orbit:

Table of predicted SNOs for the next 14.0 days since TLE Epoch: 11/1/2014
Index Date (AQUA) Time (AQUA) Lat,Lon (AQUA) SZA (AQUA ) Date (METOP-A) Time (METOP-A) Lat,Lon (METOP-A) SZA (METOP-A ) Distance(km) Time Diff (sec)
1 11/01/2014 13:02:53 73.68, -21.19 88.10 11/01/2014 13:01:40 73.61, -21.57 88.03 14.69 73
2 11/01/2014 13:52:21 -73.82, 146.15 91.75 11/01/2014 13:52:18 -73.79, 146.18 91.78 3.39 3
3 11/01/2014 14:41:50 73.89, -46.36 88.33 11/01/2014 14:42:56 73.89, -46.25 88.33 3.60 66
4 11/04/2014 08:37:08 73.72, 45.17 89.02 11/04/2014 08:36:03 73.73, 45.12 89.04 2.13 65
5 11/04/2014 09:26:35 -73.80,-147.36 90.89 11/04/2014 09:26:43 -73.82,-147.34 90.87 2.56 8
6 11/04/2014 10:16:07 74.03, 19.76 89.36 11/04/2014 10:17:18 74.06, 20.58 89.39 25.22 71
7 11/07/2014 04:11:21 73.75, 111.55 89.90 11/07/2014 04:10:27 73.75, 111.55 89.90 0.32 54
8 11/07/2014 05:00:48 -73.83, -80.97 90.02 11/07/2014 05:01:07 -73.84, -80.90 90.00 3.01 19
9 11/07/2014 05:50:28 74.47, 85.17 90.66 11/07/2014 05:51:34 74.47, 88.01 90.64 84.67 66
10 11/09/2014 23:45:34 73.77, 177.95 90.74 11/09/2014 23:44:52 73.75, 177.96 90.72 2.61 42
11 11/10/2014 00:35:01 -73.85, -14.56 89.18 11/10/2014 00:35:32 -73.85, -14.48 89.18 2.72 31
12 11/12/2014 19:19:46 73.79,-115.63 91.53 11/12/2014 19:19:16 73.79,-115.55 91.53 2.61 30
13 11/12/2014 20:09:13 -73.86, 51.86 88.40 11/12/2014 20:09:57 -73.85, 51.91 88.41 1.85 44




NCC Satellite Simultaneous Nadir Overpasses (SNOs) Prediction Service
